Tracking 19625 objects as of 26-May-2019
HD Live streaming from Space Station
objects crossing your sky now
Watch Starlink satellites crossing your sky!

COSMOS 1741

Track COSMOS 1741 now!
10-day predictions
COSMOS 1741 is classified as:


NORAD ID: 16681
Int'l Code: 1986-030A
Perigee: 774.4 km
Apogee: 803.4 km
Inclination: 74.0 °
Period: 100.5 minutes
Semi major axis: 7159 km
RCS: 1.9539 m2 (large)
Launch date: April 17, 1986
Source: Commonwealth of Independent States (former USSR) (CIS)
Launch site: PLESETSK MISSILE AND SPACE COMPLEX (PKMTR)
aabbcc
Your satellite tracking list
Your tracking list is empty




NASA's NSSDC Master Catalog

Two Line Element Set (TLE):
1 16681U 86030A   19145.91254405 -.00000010 +00000-0 +58439-5 0  9995
2 16681 074.0246 085.4037 0020238 265.5383 094.3456 14.32982287729781
Source of the keplerian elements: AFSPC